Location: Pompeys Pillar
(45.9913°N, 107.9528°W)
Time: 05:18:14
(UTC+00:00)

Tiros 1 - Pass Details

Date: 29 May 2022
Orbit: 629 x 663 km, 48.4° (Epoch: 30 June)

Event Time Altitude Azimuth Distance (km) Brightness Sun altitude
Rises 06:52:51 0° 229° (SW) 2,904 - -22.3°
Reaches altitude 10° 06:55:12 10° 224° (SW) 2,000 - -22.3°
Maximum altitude 06:59:38 49° 150° (SSE) 814 - -22.3°
Exits shadow 07:00:46 40° 107° (ESE) 940 7.8 -22.4°
Drops below altitude 10° 07:04:06 10° 76° (ENE) 2,018 9.8 -22.4°
Sets 07:06:30 0° 71° (ENE) 2,934 10.8 -22.4°
